View from above orbital plane
|
View from above satellite
|
Ground track
|
The orbit data is extracted from the following two-line orbital elements,
1 41634U 16043A 21102.18696050 .00000078 00000-0 12114-4 0 9991
2 41634 75.0018 234.1084 0008209 293.9276 66.1065 14.85784846259601
Epoch (UTC): | 12 April 2021 04:29:13 |
Eccentricity: | 0.0008209 |
inclination: | 75.0018° |
perigee height: | 605 km |
apogee height: | 617 km |
right ascension of ascending node: | 234.1084° |
argument of perigee: | 293.9276° |
revolutions per day: | 14.85784846 |
mean anomaly at epoch: | 66.1065° |
orbit number at epoch: | 25960 |
The dashed part of the orbit path shows where the satellite is in the earth's shadow,
|
|